Location: Binningen
(47.7924°N, 8.7261°E)
Time: 09:12:52
(UTC+00:00)

Cosmos 1605 Rocket - Pass Details

Date: 17 May 2021
Orbit: 946 x 1005 km, 82.9° (Epoch: 16 June)

Event Time Altitude Azimuth Distance (km) Brightness Sun altitude
Rises 23:37:57 0° 349° (N) 3,686 8.3 -22.6°
Reaches altitude 10° 23:40:27 10° 348° (NNW) 2,743 7.4 -22.5°
Maximum altitude 23:46:43 73° 265° (W) 1,037 4.0 -22.4°
Enters shadow 23:48:50 44° 194° (SSW) 1,346 4.2 -22.4°
